[[{"header":{"parameterUnit":"m.s-1","parameterCategory":1,"la1":30.2991,"la2":30.254,"lo1":-89.0895,"lo2":-89.0444,"dy":0.0017,"dx":0.0017,"nx":28,"ny":28,"refTime":"2025-11-12T09:00:00:Z","depth":0,"parameterNumber":2,"parameterNumberName":"U-component_of_WINDS"},"data":[0,0,0,0,0,0,0,0,0,0,0,0,0,0,0,0,0,0,0,0,0,0,0,0,0,0,0,0,0,0,0,0,0,0,0,0,0,0,0,0,0,0,0,0,0,0,0,0,0,0,0,0,0,0,0,0,0,0,0.7051,0.7051,0,0.7062,0.7062,0.7062,0.7013,0.7012,0.701,0.7009,0.702,0.7021,0.7023,0,0,0,0,0,0,0,0,0,0,0,0,0,0.6987,0.6989,0.7051,0.7051,0.7051,0.7062,0.7062,0.7062,0.7014,0.7012,0.701,0.7008,0.7019,0.7021,0.7023,0,0,0,0,0,0,0,0,0,0,0,0,0,0.7008,0.6989,0.7051,0.7028,0.7026,0.7061,0.7062,0.7062,0.7014,0.7012,0.701,0.7008,0.7018,0.7021,0.7023,0.708,0,0,0.703,0.7031,0,0,0,0,0,0,0,0,0.7007,0.7011,0.7031,0.703,0.7028,0.7034,0.7043,0.7068,0.7014,0.7019,0.7009,0.7007,0.7026,0.7028,0.7034,0.7081,0.7081,0.7031,0.7032,0.7033,0.7034,0,0,0,0,0,0,0,0.7006,0.701,0.7055,0.7032,0.7029,0.7017,0.7018,0.7048,0.7034,0.7018,0.7015,0.7017,0.7025,0.7032,0.7034,0.7081,0.7031,0.7033,0.7034,0.7035,0.7175,0.7177,0,0,0,0,0,0,0.7007,0.7009,0.7055,0.7055,0.7012,0.702,0.7021,0.7034,0.7034,0.7031,0.7018,0.7014,0.7029,0.7031,0.7034,0.7101,0.7033,0.7035,0.7037,0.7173,0.7176,0.7178,0,0,0,0,0,0,0.7006,0.7012,0.7054,0.7031,0.7036,0.7023,0.7039,0.7035,0.7043,0.7034,0.7031,0.7029,0.7027,0.7031,0.7069,0.7101,0.7036,0.7039,0.717,0.7174,0.7177,0.7235,0,0,0,0,0,0,0.7005,0.7012,0.7033,0.7032,0.7037,0.7089,0.7041,0.7037,0.7047,0.7042,0.7043,0.7041,0.7026,0.7066,0.7072,0.7103,0.704,0.7167,0.7172,0.7176,0.723,0.724,0.7249,0,0,0,0,0,0.7003,0.7049,0.7035,0.7041,0.7064,0.7091,0.7094,0.7076,0.705,0.7071,0.7066,0.7041,0.7097,0.707,0.7076,0.7109,0.7165,0.7171,0.7175,0.7226,0.7238,0.7248,0,0,0,0,0,0,0.7054,0.7049,0.7033,0.708,0.7087,0.7083,0.7109,0.709,0.7103,0.7098,0.7075,0.7076,0.7118,0.7117,0.7088,0.7164,0.7126,0.7133,0.7163,0.7174,0.7183,0.7182,0.7042,0,0,0,0,0,0.7071,0.7094,0.7088,0.7131,0.7135,0.7122,0.7133,0.7119,0.7124,0.7127,0.7124,0.713,0.7148,0.7161,0.7178,0.723,0.723,0.7256,0.7265,0.7272,0.7278,0.7305,0.7317,0.7195,0.7195,0.7195,0,0,0.7107,0.7106,0.7122,0.7141,0.7144,0.7168,0.7124,0.7151,0.7169,0.7131,0.7166,0.7165,0.717,0.7215,0.7235,0.7216,0.7312,0.7279,0.7285,0.7286,0.7312,0.7323,0.7334,0.7199,0.7198,0.7197,0,0,0.7183,0.7185,0.7221,0.7225,0.7231,0.7222,0.7231,0.723,0.7228,0.7264,0.7236,0.7256,0.7289,0.7294,0.7301,0.738,0.7357,0.7386,0.7433,0.746,0.747,0.7478,0.7506,0.7516,0.7392,0.7392,0.7392,0,0.7226,0.7261,0.7242,0.7271,0.728,0.7247,0.7283,0.7288,0.7299,0.7306,0.7285,0.7325,0.7327,0.7373,0.7392,0.7399,0.7408,0.7385,0.747,0.7478,0.7485,0.7512,0.7522,0.7395,0.7395,0.7394,0.7394,0,0.7313,0.7338,0.7366,0.7378,0.739,0.7423,0.7409,0.7423,0.7409,0.7402,0.7439,0.7439,0.7456,0.7466,0.7451,0.751,0.7498,0.7474,0.7435,0.7501,0.7525,0.7535,0.74,0.7399,0.7398,0.7397,0,0,0.7422,0.7423,0.7434,0.7439,0.7443,0.7461,0.7492,0.7509,0.7522,0.7531,0.7556,0.7585,0.7562,0.757,0.7556,0.758,0.7642,0.7552,0.7552,0.7569,0.7706,0.7724,0.7736,0.7628,0.7629,0.7631,0.7706,0,0.7496,0.7549,0.7533,0.7587,0.7609,0.7579,0.7606,0.7611,0.7606,0.7624,0.7619,0.764,0.7609,0.7613,0.7635,0.763,0.7669,0.7624,0.765,0.7651,0.7649,0.7749,0.7768,0.7839,0.7715,0.7717,0.7718,0,0.759,0.7603,0.7659,0.7659,0.7668,0.7693,0.7706,0.7724,0.773,0.7725,0.7734,0.7715,0.7745,0.7707,0.7749,0.7718,0.7728,0.7727,0.7729,0.7731,0.7688,0.7752,0.7861,0.7871,0.7733,0.7732,0.7731,0,0.7663,0.7694,0.7732,0.7737,0.7739,0.7757,0.7758,0.7762,0.7773,0.7785,0.7792,0.7807,0.7815,0.7828,0.7814,0.7787,0.7857,0.7818,0.7853,0.7853,0.7868,0.7867,0.7979,0.7876,0.7876,0.7876,0.7875,0,0.7747,0.7782,0.7764,0.7787,0.7826,0.7807,0.7846,0.7844,0.7848,0.7869,0.7844,0.7865,0.7846,0.7865,0.7854,0.789,0.7894,0.789,0.7887,0.7892,0.7892,0.7897,0.7892,0.7878,0.7878,0.7877,0.7877,0,0.7835,0.7824,0.7863,0.7862,0.7862,0.7891,0.7889,0.7911,0.7904,0.7932,0.7938,0.7927,0.7949,0.7936,0.7958,0.795,0.7997,0.7987,0.7995,0.7992,0.8028,0.8024,0.8146,0.8161,0.8049,0.805,0.8051,0,0.7889,0.7915,0.7917,0.793,0.7934,0.7955,0.7966,0.7949,0.7962,0.7971,0.7991,0.801,0.8024,0.806,0.8054,0.8071,0.8061,0.8102,0.8063,0.8068,0.8061,0.8059,0.8061,0.811,0.8111,0.8112,0.8113,0,0.7986,0.7979,0.7997,0.8013,0.8027,0.8039,0.8048,0.806,0.8043,0.8059,0.8081,0.8092,0.8115,0.8134,0.8148,0.8149,0.8129,0.8126,0.8135,0.814,0.8144,0.8142,0.8016,0.8123,0.8122,0.8121,0.8121,0.812,0.8058,0.808,0.8085,0.8105,0.8111,0.812,0.814,0.8136,0.8154,0.8171,0.8161,0.8186,0.8191,0.8208,0.8212,0.8232,0.8215,0.8228,0.8231,0.8235,0.8239,0.8141,0.8235,0.8234,0.8234,0.8234,0.8233,0,0.8153,0.8155,0.8174,0.8188,0.8204,0.8184,0.8194,0.8208,0.8231,0.8238,0.8253,0.8278,0.8297,0.8293,0.831,0.8327,0.8318,0.8332,0.833,0.8331,0.8254,0.8244,0.8339,0.8339,0.8339,0.8339,0.8339,0.8339,0.8204,0.824,0.8235,0.8274,0.8275,0.8301,0.8308,0.8317,0.8322,0.8351,0.8367,0.8365,0.8367,0.8384,0.8401,0.8399,0.8406,0.8424,0.8419,0.8346,0.8336,0.8326,0.8317,0.8426,0.8426,0.8494,0.8494,0.8495]},{"header":{"parameterUnit":"m.s-1","parameterCategory":1,"la1":30.2991,"la2":30.254,"lo1":-89.0895,"lo2":-89.0444,"dy":0.0017,"dx":0.0017,"nx":28,"ny":28,"refTime":"2025-11-12T09:00:00:Z","depth":0,"parameterNumber":3,"parameterNumberName":"V-component_of_WINDS"},"data":[0,0,0,0,0,0,0,0,0,0,0,0,0,0,0,0,0,0,0,0,0,0,0,0,0,0,0,0,0,0,0,0,0,0,0,0,0,0,0,0,0,0,0,0,0,0,0,0,0,0,0,0,0,0,0,0,0,0,-0.111,-0.1111,0,-0.1245,-0.1246,-0.1248,-0.1331,-0.1332,-0.1332,-0.1333,-0.147,-0.1474,-0.1477,0,0,0,0,0,0,0,0,0,0,0,0,0,-0.0922,-0.0925,-0.1109,-0.1111,-0.1113,-0.1245,-0.1246,-0.1248,-0.1331,-0.1332,-0.1332,-0.1333,-0.1469,-0.1473,-0.1477,0,0,0,0,0,0,0,0,0,0,0,0,0,-0.1025,-0.0926,-0.1109,-0.117,-0.1177,-0.1244,-0.1247,-0.1249,-0.1331,-0.1332,-0.1333,-0.1333,-0.1468,-0.1473,-0.1478,-0.1494,0,0,-0.1493,-0.1495,0,0,0,0,0,0,0,0,-0.1019,-0.1032,-0.1159,-0.1166,-0.1174,-0.1272,-0.1231,-0.1331,-0.1331,-0.1273,-0.1333,-0.1334,-0.1404,-0.1414,-0.1438,-0.1501,-0.1507,-0.1493,-0.1496,-0.1498,-0.1499,0,0,0,0,0,0,0,-0.1012,-0.1027,-0.1163,-0.1161,-0.117,-0.1191,-0.1206,-0.125,-0.1333,-0.1278,-0.1284,-0.1299,-0.1408,-0.1433,-0.1442,-0.1509,-0.1493,-0.1497,-0.15,-0.1502,-0.1594,-0.1593,0,0,0,0,0,0,-0.0995,-0.102,-0.1159,-0.1167,-0.1097,-0.1193,-0.1211,-0.124,-0.1333,-0.1347,-0.1298,-0.1302,-0.1424,-0.1436,-0.1447,-0.1473,-0.1498,-0.1503,-0.1505,-0.1594,-0.1593,-0.1593,0,0,0,0,0,0,-0.0991,-0.1007,-0.1153,-0.1095,-0.1116,-0.1196,-0.1228,-0.1242,-0.1267,-0.1348,-0.1363,-0.1309,-0.1425,-0.144,-0.1482,-0.1479,-0.1505,-0.1509,-0.1595,-0.1594,-0.1593,-0.1526,0,0,0,0,0,0,-0.0985,-0.1005,-0.1012,-0.1095,-0.1118,-0.1186,-0.1228,-0.1244,-0.1276,-0.1282,-0.1362,-0.1376,-0.1427,-0.1475,-0.1487,-0.1486,-0.1513,-0.1595,-0.1594,-0.1593,-0.1528,-0.1523,-0.1518,0,0,0,0,0,-0.0978,-0.0987,-0.1012,-0.1028,-0.1129,-0.1186,-0.1199,-0.1258,-0.1275,-0.1283,-0.1335,-0.1373,-0.1478,-0.1478,-0.1493,-0.1494,-0.1596,-0.1595,-0.1593,-0.1531,-0.1524,-0.1518,0,0,0,0,0,0,-0.0901,-0.0999,-0.1028,-0.1064,-0.1116,-0.12,-0.1211,-0.1248,-0.1297,-0.1301,-0.1371,-0.1389,-0.1424,-0.1463,-0.1462,-0.1515,-0.1541,-0.1543,-0.1488,-0.1482,-0.1477,-0.1467,-0.1517,0,0,0,0,0,-0.0888,-0.0926,-0.101,-0.1034,-0.1059,-0.113,-0.1157,-0.1198,-0.1255,-0.1277,-0.1332,-0.1386,-0.1431,-0.1459,-0.1505,-0.1535,-0.1554,-0.1543,-0.1537,-0.1532,-0.1533,-0.1553,-0.1549,-0.1589,-0.1589,-0.1589,0,0,-0.0862,-0.0921,-0.094,-0.102,-0.1065,-0.1103,-0.1148,-0.1186,-0.1215,-0.1283,-0.1326,-0.1369,-0.1433,-0.1469,-0.1488,-0.1503,-0.1526,-0.1531,-0.1526,-0.153,-0.1551,-0.1547,-0.1544,-0.1588,-0.1589,-0.1589,0,0,-0.0834,-0.0882,-0.0907,-0.0952,-0.102,-0.1068,-0.1074,-0.1153,-0.1184,-0.1228,-0.128,-0.1316,-0.1391,-0.1435,-0.1468,-0.1457,-0.1494,-0.147,-0.1442,-0.146,-0.1457,-0.1454,-0.1451,-0.1449,-0.147,-0.147,-0.147,0,-0.0793,-0.0852,-0.0915,-0.0951,-0.0984,-0.1048,-0.1075,-0.1115,-0.1194,-0.1216,-0.1231,-0.1329,-0.1376,-0.1424,-0.1422,-0.1446,-0.1455,-0.1461,-0.1452,-0.145,-0.1449,-0.1446,-0.1445,-0.1467,-0.1467,-0.1468,-0.1468,0,-0.0798,-0.0839,-0.0851,-0.0927,-0.0962,-0.0992,-0.106,-0.1088,-0.1126,-0.1172,-0.1217,-0.1277,-0.1336,-0.1351,-0.1388,-0.1404,-0.1412,-0.1439,-0.1466,-0.144,-0.1439,-0.1439,-0.1462,-0.1463,-0.1464,-0.1465,0,0,-0.0725,-0.0836,-0.0839,-0.0875,-0.0955,-0.0987,-0.1021,-0.1079,-0.1102,-0.1155,-0.1185,-0.1248,-0.1274,-0.131,-0.1353,-0.1369,-0.1358,-0.1395,-0.1397,-0.1386,-0.138,-0.1359,-0.1356,-0.1383,-0.1383,-0.1383,-0.1374,0,-0.0708,-0.0772,-0.083,-0.0873,-0.0911,-0.0973,-0.1002,-0.1055,-0.1099,-0.1138,-0.1187,-0.1231,-0.1261,-0.1284,-0.1303,-0.1355,-0.1357,-0.1356,-0.1412,-0.1413,-0.1393,-0.1356,-0.1334,-0.1323,-0.1374,-0.1374,-0.1374,0,-0.0698,-0.0748,-0.0795,-0.0872,-0.0891,-0.0916,-0.0975,-0.1011,-0.1072,-0.1103,-0.1144,-0.1189,-0.1228,-0.1251,-0.1306,-0.1304,-0.133,-0.1359,-0.136,-0.1368,-0.1392,-0.1362,-0.132,-0.1318,-0.1374,-0.1374,-0.1374,0,-0.0639,-0.0719,-0.0758,-0.0786,-0.0877,-0.0894,-0.0932,-0.0994,-0.1026,-0.1077,-0.1099,-0.1153,-0.1183,-0.1225,-0.1284,-0.1295,-0.1332,-0.136,-0.1359,-0.1358,-0.1364,-0.1363,-0.1326,-0.1381,-0.1381,-0.1381,-0.1381,0,-0.0615,-0.0641,-0.0733,-0.0756,-0.0788,-0.0855,-0.0884,-0.0928,-0.0982,-0.1015,-0.1072,-0.1102,-0.1178,-0.1218,-0.1264,-0.1302,-0.1315,-0.1342,-0.1354,-0.1337,-0.1333,-0.1355,-0.1357,-0.138,-0.138,-0.138,-0.138,0,-0.0555,-0.0618,-0.0664,-0.0746,-0.0768,-0.0787,-0.0858,-0.0884,-0.0931,-0.0973,-0.0986,-0.1061,-0.111,-0.1174,-0.1243,-0.1274,-0.1307,-0.1326,-0.1286,-0.1293,-0.1289,-0.1288,-0.1264,-0.1265,-0.1318,-0.1318,-0.1317,0,-0.0535,-0.0557,-0.0642,-0.0669,-0.0706,-0.0748,-0.0781,-0.0848,-0.088,-0.0951,-0.0968,-0.1022,-0.1068,-0.1144,-0.1204,-0.1258,-0.1278,-0.1266,-0.1287,-0.1269,-0.1278,-0.1276,-0.1279,-0.1261,-0.126,-0.1259,-0.1258,0,-0.0494,-0.0524,-0.0569,-0.0626,-0.0663,-0.0711,-0.0761,-0.0779,-0.0857,-0.089,-0.0941,-0.0977,-0.1048,-0.1101,-0.1162,-0.1202,-0.1243,-0.1252,-0.1254,-0.1237,-0.1213,-0.1226,-0.1272,-0.1252,-0.1252,-0.1253,-0.1253,-0.1254,-0.0454,-0.0476,-0.054,-0.0589,-0.0634,-0.0679,-0.0707,-0.0759,-0.0803,-0.0866,-0.0903,-0.0953,-0.1014,-0.1101,-0.114,-0.118,-0.1195,-0.1199,-0.12,-0.12,-0.1194,-0.1207,-0.1191,-0.1192,-0.1192,-0.1192,-0.1192,0,-0.0415,-0.0459,-0.0504,-0.0572,-0.0611,-0.0647,-0.0704,-0.0734,-0.0777,-0.0831,-0.0876,-0.0935,-0.0987,-0.1052,-0.1108,-0.1128,-0.1148,-0.114,-0.1139,-0.1148,-0.1177,-0.1169,-0.1123,-0.1123,-0.1123,-0.1123,-0.1123,-0.1123,-0.04,-0.0439,-0.0477,-0.054,-0.0585,-0.0634,-0.0664,-0.0706,-0.075,-0.0814,-0.0857,-0.0899,-0.0958,-0.1019,-0.1068,-0.1086,-0.1104,-0.109,-0.1114,-0.114,-0.1146,-0.1152,-0.1145,-0.1094,-0.1094,-0.1081,-0.1081,-0.1081]}]]